Hamilton, TX

11:31 AM CDT on August 20, 2017 (GMT -0500)
Hamilton Municipal

Weather History for KMNZ - April, 2013

Change the Weather History Date:

Friday, April 19, 2013

  Actual Average (KACT) Record (KACT)
Temperature  
Mean Temperature 50 °F -  
Max Temperature 64 °F 76 °F 97 °F (1996)
Min Temperature 36 °F 55 °F 34 °F (2013)
Degree Days  
Heating Degree Days 16    
Moisture  
Dew Point 28 °F    
Average Humidity 46    
Maximum Humidity 83    
Minimum Humidity 21    
Precipitation  
Precipitation 0.00 in - - ()
Sea Level Pressure  
Sea Level Pressure 30.23 in    
Wind  
Wind Speed 10 mph (NNW)    
Max Wind Speed 21 mph    
Max Gust Speed 24 mph    
Visibility 10 miles    
Events      
Averages and records for this station are not official NWS values.
T = Trace of Precipitation, MM = Missing Value Source: NWS Daily Summary

Daily Weather History Graph

Daily Weather History Graph

Search for Another Location

Airport or City:

Trip Planner

Search our weather history database for the weather conditions in past years. The results will help you decide how hot, cold, wet, or windy it might be!

Date:

Astronomy

Apr. 19, 2013 Rise Set
Actual Time 6:59 AM CDT 8:04 PM CDT
Civil Twilight 6:34 AM CDT 8:29 PM CDT
Nautical Twilight 6:04 AM CDT 8:59 PM CDT
Astronomical Twilight 5:33 AM CDT 9:30 PM CDT
Moon 2:12 PM CDT (4/19) 2:52 AM CDT (4/19)
Length of Visible Light 13h 55m
Length of Day
13h 05m
First Quarter, 62% of the Moon is Illuminated
Apr 19
First Quarter
Apr 25
Full
May 2
Last Quarter
May 9
New
May 17
First Quarter

Hourly Weather History & Observations

Time (CDT) Temp. Windchill Dew Point Humidity Pressure Visibility Wind Dir Wind Speed Gust Speed Precip Events Conditions
12:15 AM 45.5 °F 40.3 °F 33.6 °F 63% 30.15 in 10.0 mi North 10.4 mph - N/A   Clear
12:35 AM 45.1 °F 39.5 °F 32.9 °F 62% 30.15 in 10.0 mi North 11.5 mph - N/A   Clear
12:55 AM 45.5 °F 39.6 °F 32.5 °F 61% 30.15 in 10.0 mi North 12.7 mph - N/A   Clear
1:15 AM 45.5 °F 39.2 °F 32.2 °F 60% 30.15 in 10.0 mi North 13.8 mph - N/A   Clear
1:35 AM 45.0 °F 38.9 °F 32.4 °F 61% 30.16 in 10.0 mi North 12.7 mph - N/A   Clear
1:55 AM 44.6 °F 38.8 °F 32.2 °F 62% 30.16 in 10.0 mi North 11.5 mph - N/A   Clear
2:15 AM 43.7 °F 37.7 °F 32.5 °F 65% 30.16 in 10.0 mi North 11.5 mph - N/A   Clear
2:35 AM 43.0 °F 36.4 °F 32.4 °F 66% 30.17 in 10.0 mi North 12.7 mph - N/A   Clear
2:55 AM 42.8 °F 36.6 °F 32.0 °F 66% 30.17 in 10.0 mi North 11.5 mph - N/A   Clear
3:15 AM 42.8 °F 36.2 °F 31.8 °F 65% 30.17 in 10.0 mi North 12.7 mph - N/A   Clear
3:35 AM 42.3 °F 36.8 °F 31.8 °F 67% 30.18 in 10.0 mi North 9.2 mph - N/A   Clear
3:55 AM 40.8 °F 35.6 °F 31.8 °F 70% 30.19 in 10.0 mi North 8.1 mph - N/A   Clear
4:15 AM 39.4 °F 33.8 °F 32.0 °F 75% 30.21 in 10.0 mi NNW 8.1 mph - N/A   Clear
4:35 AM 39.9 °F 35.1 °F 32.0 °F 73% 30.22 in 10.0 mi NNW 6.9 mph - N/A   Clear
4:55 AM 39.2 °F 34.2 °F 32.0 °F 75% 30.22 in 10.0 mi NW 6.9 mph - N/A   Clear
5:15 AM 39.2 °F 33.6 °F 32.0 °F 75% 30.24 in 10.0 mi NW 8.1 mph - N/A   Clear
5:35 AM 39.2 °F 35.0 °F 31.8 °F 75% 30.24 in 10.0 mi NW 5.8 mph - N/A   Clear
5:55 AM 37.8 °F 32.5 °F 31.1 °F 77% 30.25 in 10.0 mi WNW 6.9 mph - N/A   Clear
6:15 AM 37.8 °F 32.5 °F 31.1 °F 77% 30.25 in 10.0 mi WNW 6.9 mph - N/A   Clear
6:35 AM 37.6 °F 33.1 °F 31.5 °F 79% 30.25 in 10.0 mi WNW 5.8 mph - N/A   Clear
6:55 AM 36.7 °F 31.2 °F 31.6 °F 82% 30.26 in 10.0 mi WNW 6.9 mph - N/A   Clear
7:15 AM 36.7 °F 31.2 °F 31.8 °F 83% 30.27 in 10.0 mi NW 6.9 mph - N/A   Clear
7:35 AM 38.7 °F 33.6 °F 32.2 °F 78% 30.27 in 10.0 mi NW 6.9 mph - N/A   Clear
7:55 AM 40.5 °F 36.5 °F 32.2 °F 72% 30.28 in 10.0 mi WNW 5.8 mph - N/A   Clear
8:15 AM 42.4 °F 37.0 °F 32.2 °F 67% 30.28 in 10.0 mi NW 9.2 mph - N/A   Clear
8:35 AM 44.2 °F 39.2 °F 32.2 °F 63% 30.29 in 10.0 mi NW 9.2 mph - N/A   Clear
8:55 AM 45.9 °F 40.4 °F 31.8 °F 58% 30.29 in 10.0 mi NNW 11.5 mph - N/A   Clear
9:35 AM 48.4 °F - 26.8 °F 43% 30.30 in 10.0 mi NNW 15.0 mph 20.7 mph N/A   Clear
9:55 AM 49.6 °F - 27.0 °F 41% 30.31 in 10.0 mi North 15.0 mph 20.7 mph N/A   Clear
10:15 AM 50.2 °F - 23.9 °F 36% 30.31 in 10.0 mi North 16.1 mph 20.7 mph N/A   Clear
10:35 AM 50.9 °F - 25.3 °F 37% 30.31 in 10.0 mi NNW 15.0 mph 19.6 mph N/A   Clear
10:55 AM 52.5 °F - 24.4 °F 34% 30.31 in 10.0 mi NNW 18.4 mph 24.2 mph N/A   Clear
11:15 AM 52.9 °F - 21.7 °F 30% 30.31 in 10.0 mi North 13.8 mph 21.9 mph N/A   Clear
11:35 AM 53.6 °F - 22.5 °F 30% 30.31 in 10.0 mi NNW 15.0 mph 21.9 mph N/A   Clear
11:55 AM 54.7 °F - 23.2 °F 29% 30.31 in 10.0 mi NNW 13.8 mph 19.6 mph N/A   Clear
12:15 PM 56.1 °F - 23.4 °F 28% 30.31 in 10.0 mi NNW 20.7 mph 24.2 mph N/A   Clear
12:35 PM 56.3 °F - 22.8 °F 27% 30.31 in 10.0 mi NNW 15.0 mph 21.9 mph N/A   Clear
12:55 PM 57.6 °F - 25.2 °F 29% 30.30 in 10.0 mi North 15.0 mph - N/A   Clear
1:15 PM 57.7 °F - 24.8 °F 28% 30.29 in 10.0 mi NNW 15.0 mph 20.7 mph N/A   Clear
1:35 PM 58.8 °F - 25.3 °F 28% 30.28 in 10.0 mi NNW 15.0 mph 19.6 mph N/A   Clear
1:55 PM 60.3 °F - 25.7 °F 27% 30.27 in 10.0 mi NNW 11.5 mph 17.3 mph N/A   Clear
2:15 PM 60.3 °F - 24.1 °F 25% 30.27 in 10.0 mi North 13.8 mph 19.6 mph N/A   Clear
2:35 PM 61.0 °F - 25.9 °F 26% 30.26 in 10.0 mi NW 9.2 mph 17.3 mph N/A   Clear
2:55 PM 61.7 °F - 24.8 °F 24% 30.25 in 10.0 mi NNW 15.0 mph 19.6 mph N/A   Clear
3:15 PM 62.2 °F - 25.2 °F 24% 30.24 in 10.0 mi NW 11.5 mph 20.7 mph N/A   Clear
3:35 PM 62.4 °F - 25.0 °F 24% 30.23 in 10.0 mi North 10.4 mph - N/A   Clear
3:55 PM 63.1 °F - 25.0 °F 23% 30.22 in 10.0 mi NNW 13.8 mph 18.4 mph N/A   Clear
4:15 PM 62.8 °F - 24.1 °F 23% 30.21 in 10.0 mi WNW 3.5 mph - N/A   Clear
4:35 PM 63.5 °F - 24.6 °F 23% 30.20 in 10.0 mi NW 11.5 mph - N/A   Clear
4:55 PM 63.7 °F - 23.5 °F 22% 30.19 in 10.0 mi NNW 8.1 mph 20.7 mph N/A   Clear
5:15 PM 63.9 °F - 23.9 °F 22% 30.19 in 10.0 mi WNW 11.5 mph 16.1 mph N/A   Clear
5:35 PM 63.7 °F - 23.7 °F 22% 30.18 in 10.0 mi WNW 6.9 mph 11.5 mph N/A   Clear
5:55 PM 63.7 °F - 22.6 °F 21% 30.18 in 10.0 mi NW 5.8 mph 16.1 mph N/A   Clear
6:15 PM 63.7 °F - 23.4 °F 22% 30.18 in 10.0 mi North 9.2 mph - N/A   Clear
6:35 PM 63.1 °F - 22.8 °F 21% 30.18 in 10.0 mi NW 9.2 mph - N/A   Clear
6:55 PM 62.8 °F - 24.4 °F 23% 30.18 in 10.0 mi NNW 6.9 mph - N/A   Clear
7:15 PM 62.1 °F - 22.6 °F 22% 30.17 in 10.0 mi North 4.6 mph - N/A   Clear
7:35 PM 61.0 °F - 24.6 °F 25% 30.17 in 10.0 mi Calm Calm - N/A   Clear
7:55 PM 59.2 °F - 27.5 °F 30% 30.17 in 10.0 mi North 3.5 mph - N/A   Clear
8:15 PM 58.3 °F - 26.8 °F 30% 30.17 in 10.0 mi NNE 3.5 mph - N/A   Clear
8:35 PM 58.3 °F - 25.7 °F 29% 30.17 in 10.0 mi Calm Calm - N/A   Clear
8:55 PM 52.9 °F - 29.7 °F 41% 30.18 in 10.0 mi SE 3.5 mph - N/A   Clear
9:15 PM 55.9 °F - 24.6 °F 30% 30.19 in 10.0 mi Calm Calm - N/A   Clear
9:35 PM 56.7 °F - 23.5 °F 28% 30.19 in 10.0 mi Calm Calm - N/A   Clear
9:55 PM 50.2 °F - 31.3 °F 48% 30.19 in 10.0 mi SE 4.6 mph - N/A   Clear
10:15 PM 48.2 °F - 32.2 °F 54% 30.19 in 10.0 mi SSE 5.8 mph - N/A   Clear
10:35 PM 48.9 °F - 32.0 °F 52% 30.20 in 10.0 mi SSE 6.9 mph - N/A   Clear
10:55 PM 48.9 °F - 31.1 °F 50% 30.21 in 10.0 mi South 5.8 mph - N/A   Clear
11:15 PM 47.8 °F - 31.8 °F 54% 30.21 in 10.0 mi SSE 5.8 mph - N/A   Clear
11:35 PM 47.1 °F - 31.6 °F 55% 30.21 in 10.0 mi South 6.9 mph - N/A   Clear
11:55 PM 46.0 °F 41.4 °F 32.0 °F 58% 30.20 in 10.0 mi SSE 9.2 mph - N/A   Clear